• In Russia
  • List of Countries
  • For 7 days
  • Water Temperature
  • Satellite Maps
  • Weather Map
  • Weather Widgets
  • user-avatar
    Login

    Hourly Weather Klagenfurt

    Today, 27 March, Monday

    Time Temperature Precipitation Wind Pressure Humidity
    00:00 +1°C° 0 mm 1 mps 693 mmHg 82%
    01:00 0°C° 0 mm 1 mps 693 mmHg 82%
    02:00 0°C° 0 mm 1 mps 693 mmHg 83%
    03:00 0°C° 0 mm 1 mps 693 mmHg 84%
    04:00 0°C° 0 mm 1 mps 693 mmHg 85%
    05:00 +1°C° 0 mm 1 mps 694 mmHg 81%
    06:00 +1°C° 0 mm 1 mps 694 mmHg 77%
    07:00 +2°C° 0 mm 1 mps 694 mmHg 73%
    08:00 +5°C° 0 mm 1 mps 695 mmHg 62%
    09:00 +7°C° 0 mm 1 mps 695 mmHg 51%
    10:00 +9°C° 0 mm 1 mps 695 mmHg 40%
    11:00 +10°C° 0 mm 1 mps 695 mmHg 37%
    12:00 +10°C° 0 mm 2 mps 695 mmHg 34%
    13:00 +12°C° 0 mm 2 mps 695 mmHg 31%
    14:00 +12°C° 0 mm 2 mps 695 mmHg 33%
    15:00 +12°C° 0 mm 2 mps 695 mmHg 35%
    16:00 +12°C° 0 mm 1 mps 694 mmHg 37%
    17:00 +9°C° 0 mm 1 mps 694 mmHg 49%
    18:00 +6°C° 0 mm 1 mps 693 mmHg 61%
    19:00 +3°C° 0 mm 1 mps 693 mmHg 73%
    20:00 +2°C° 0 mm 1 mps 693 mmHg 74%
    21:00 +2°C° 0 mm 1 mps 693 mmHg 75%
    22:00 +1°C° 0 mm 1 mps 694 mmHg 76%
    23:00 +1°C° 0 mm 1 mps 694 mmHg 75%

    Tomorrow, 28 March, Tuesday

    Time Temperature Precipitation Wind Pressure Humidity
    00:00 0°C° 0 mm 0 mps 694 mmHg 75%
    01:00 0°C° 0 mm 0 mps 694 mmHg 74%
    02:00 0°C° 0 mm 0 mps 693 mmHg 75%
    03:00 0°C° 0 mm 0 mps 693 mmHg 75%
    04:00 0°C° 0 mm 0 mps 693 mmHg 75%
    05:00 +1°C° 0 mm 0 mps 693 mmHg 71%
    06:00 +2°C° 0 mm 0 mps 693 mmHg 66%
    07:00 +4°C° 0 mm 1 mps 694 mmHg 62%
    08:00 +6°C° 0 mm 0 mps 694 mmHg 53%
    09:00 +9°C° 0 mm 0 mps 695 mmHg 45%
    10:00 +12°C° 0 mm 0 mps 696 mmHg 36%
    11:00 +14°C° 0 mm 1 mps 696 mmHg 36%
    12:00 +15°C° 0 mm 1 mps 696 mmHg 35%
    13:00 +16°C° 0 mm 1 mps 696 mmHg 35%
    14:00 +16°C° 0 mm 1 mps 695 mmHg 38%
    15:00 +16°C° 0 mm 1 mps 695 mmHg 40%
    16:00 +15°C° 0 mm 1 mps 695 mmHg 43%
    17:00 +12°C° 0 mm 1 mps 694 mmHg 57%
    18:00 +8°C° 0 mm 1 mps 694 mmHg 71%
    19:00 +4°C° 0 mm 0 mps 693 mmHg 85%
    20:00 +4°C° 0 mm 0 mps 693 mmHg 86%
    21:00 +3°C° 0 mm 0 mps 694 mmHg 87%
    22:00 +3°C° 0 mm 0 mps 694 mmHg 87%
    23:00 +4°C° 0 mm 1 mps 694 mmHg 87%

    Day after tomorrow, 29 March, Wednesday

    Time Temperature Precipitation Wind Pressure Humidity
    00:00 +4°C° 0 mm 1 mps 694 mmHg 87%
    01:00 +4°C° 0 mm 1 mps 694 mmHg 87%
    02:00 +4°C° 0 mm 1 mps 694 mmHg 88%
    03:00 +4°C° 0 mm 1 mps 694 mmHg 88%
    04:00 +4°C° 0 mm 1 mps 695 mmHg 88%
    05:00 +4°C° 0 mm 1 mps 695 mmHg 87%
    06:00 +5°C° 0 mm 1 mps 695 mmHg 85%
    07:00 +6°C° 0 mm 1 mps 695 mmHg 84%
    08:00 +9°C° 0 mm 1 mps 696 mmHg 73%
    09:00 +12°C° 0 mm 1 mps 697 mmHg 62%
    10:00 +15°C° 0 mm 1 mps 697 mmHg 51%
    11:00 +16°C° 0 mm 1 mps 697 mmHg 47%
    12:00 +18°C° 0 mm 1 mps 697 mmHg 44%
    13:00 +19°C° 0 mm 1 mps 697 mmHg 40%
    14:00 +18°C° 0 mm 1 mps 697 mmHg 42%
    15:00 +18°C° 0 mm 1 mps 696 mmHg 43%
    16:00 +18°C° 0 mm 1 mps 696 mmHg 45%
    17:00 +14°C° 0 mm 1 mps 695 mmHg 57%
    18:00 +11°C° 0 mm 1 mps 695 mmHg 70%
    19:00 +8°C° 0 mm 1 mps 694 mmHg 83%
    20:00 +7°C° 0 mm 1 mps 695 mmHg 83%
    21:00 +7°C° 0 mm 1 mps 695 mmHg 84%
    22:00 +7°C° 0 mm 1 mps 696 mmHg 84%
    23:00 +6°C° 0 mm 1 mps 696 mmHg 85%

    30 March, Thursday

    Time Temperature Precipitation Wind Pressure Humidity
    00:00 +6°C° 0 mm 1 mps 696 mmHg 86%
    01:00 +6°C° 0 mm 1 mps 696 mmHg 86%
    02:00 +5°C° 0 mm 1 mps 696 mmHg 87%
    03:00 +5°C° 0 mm 1 mps 695 mmHg 88%
    04:00 +5°C° 0 mm 1 mps 695 mmHg 89%
    05:00 +5°C° 0 mm 1 mps 696 mmHg 87%
    06:00 +6°C° 0 mm 1 mps 696 mmHg 85%
    07:00 +7°C° 0 mm 1 mps 696 mmHg 83%
    08:00 +10°C° 0 mm 1 mps 697 mmHg 73%
    09:00 +13°C° 0 mm 1 mps 697 mmHg 62%
    10:00 +14°C° 0 mm 0 mps 698 mmHg 52%
    11:00 +16°C° 0 mm 1 mps 698 mmHg 49%
    12:00 +18°C° 0 mm 1 mps 698 mmHg 46%
    13:00 +19°C° 0 mm 1 mps 698 mmHg 43%
    14:00 +19°C° 0 mm 1 mps 697 mmHg 45%
    15:00 +18°C° 0 mm 1 mps 697 mmHg 47%
    16:00 +18°C° 0 mm 1 mps 697 mmHg 49%
    17:00 +14°C° 0 mm 1 mps 696 mmHg 62%
    18:00 +11°C° 0 mm 1 mps 696 mmHg 75%
    19:00 +9°C° 0 mm 1 mps 695 mmHg 87%
    20:00 +8°C° 0 mm 1 mps 695 mmHg 89%
    21:00 +7°C° 0 mm 1 mps 695 mmHg 91%
    22:00 +6°C° 0 mm 0 mps 695 mmHg 93%
    23:00 +5°C° 0 mm 0 mps 695 mmHg 93%

    31 March, Friday

    Time Temperature Precipitation Wind Pressure Humidity
    00:00 +5°C° 0 mm 0 mps 695 mmHg 94%
    01:00 +5°C° 0 mm 0 mps 695 mmHg 94%
    02:00 +4°C° 0 mm 0 mps 694 mmHg 94%
    03:00 +4°C° 0 mm 0 mps 694 mmHg 95%
    04:00 +4°C° 0 mm 0 mps 694 mmHg 95%
    05:00 +5°C° 0 mm 0 mps 694 mmHg 94%
    06:00 +6°C° 0 mm 0 mps 694 mmHg 93%
    07:00 +8°C° 0 mm 1 mps 694 mmHg 91%
    08:00 +10°C° 0 mm 1 mps 694 mmHg 80%
    09:00 +13°C° 0 mm 1 mps 695 mmHg 70%
    10:00 +15°C° 0 mm 1 mps 695 mmHg 59%
    11:00 +16°C° 0 mm 1 mps 694 mmHg 54%
    12:00 +17°C° 0 mm 2 mps 694 mmHg 49%
    13:00 +18°C° 0 mm 2 mps 694 mmHg 45%
    14:00 +17°C° 0 mm 2 mps 693 mmHg 45%
    15:00 +17°C° 0 mm 2 mps 693 mmHg 46%
    16:00 +17°C° 0 mm 2 mps 692 mmHg 47%
    17:00 +14°C° 0 mm 2 mps 691 mmHg 58%
    18:00 +12°C° 0 mm 2 mps 691 mmHg 70%
    19:00 +9°C° 0 mm 1 mps 690 mmHg 81%
    20:00 +8°C° 0 mm 1 mps 690 mmHg 84%
    21:00 +8°C° 0 mm 1 mps 690 mmHg 87%
    22:00 +7°C° 0 mm 1 mps 689 mmHg 89%
    23:00 +7°C° 0 mm 1 mps 689 mmHg 90%

    1 April, Saturday

    Time Temperature Precipitation Wind Pressure Humidity
    00:00 +6°C° 0 mm 1 mps 689 mmHg 90%
    01:00 +6°C° 0 mm 1 mps 689 mmHg 91%
    02:00 +5°C° 0 mm 1 mps 688 mmHg 92%
    03:00 +5°C° 0 mm 1 mps 688 mmHg 92%
    04:00 +5°C° 0 mm 1 mps 687 mmHg 93%
    05:00 +6°C° 0 mm 1 mps 688 mmHg 90%
    06:00 +6°C° 0 mm 1 mps 688 mmHg 86%
    07:00 +7°C° 0 mm 1 mps 688 mmHg 83%
    08:00 +9°C° 0 mm 1 mps 688 mmHg 76%
    09:00 +10°C° 0 mm 2 mps 688 mmHg 68%
    10:00 +14°C° 0 mm 2 mps 688 mmHg 60%
    11:00 +14°C° 0 mm 2 mps 688 mmHg 56%
    12:00 +14°C° 0 mm 3 mps 688 mmHg 52%
    13:00 +16°C° 0 mm 3 mps 688 mmHg 48%
    14:00 +14°C° 0 mm 3 mps 687 mmHg 50%
    15:00 +14°C° 0 mm 3 mps 687 mmHg 52%
    16:00 +13°C° 0 mm 3 mps 686 mmHg 53%
    17:00 +12°C° 0.1 mm 2 mps 686 mmHg 64%
    18:00 +9°C° 0.1 mm 2 mps 686 mmHg 75%
    19:00 +8°C° 0.1 mm 1 mps 685 mmHg 87%
    20:00 +7°C° 0 mm 1 mps 685 mmHg 89%
    21:00 +7°C° 0 mm 1 mps 686 mmHg 91%
    22:00 +6°C° 0 mm 1 mps 686 mmHg 94%
    23:00 +5°C° 0 mm 1 mps 685 mmHg 94%
    Show more